Regional Weather Roundup
Issued by NWS Portland, ME

Home | Current Version | Previous Version | Text Only | Print | Product List | Glossary On
Versions: 1 2 3 4 5 6 7 8 9 10 11 12 13 14 15 16 17 18 19 20 21 22 23 24 25 26 27 28 29 30 31 32 33 34 35 36 37 38 39 40 41 42 43 44 45 46 47 48 49 50
000
ASUS41 KGYX 300710
RWRGYX
WEATHER ROUNDUP FOR MAINE AND NEW HAMPSHIRE
NATIONAL WEATHER SERVICE GRAY ME
300 AM EDT TUE SEP 30 2014

MEZ002-005-006-010-012-015-018-020-021-024-026-027-029-300800-
MAINE

CITY           SKY/WX    TMP DP  RH WIND       PRES   REMARKS
PORTLAND       CLOUDY    54  52  93 N8        30.04F
SANFORD        CLOUDY    54  48  82 NE7       30.03F
BAR HARBOR     CLOUDY    50  50 100 NE8       30.06F
WISCASSET      CLOUDY    52  50  93 VRB5      30.07S FOG
ROCKLAND       CLOUDY    52  50  93 NE12G17   30.04S
FRYEBURG       CLOUDY    53  51  93 NE8       30.05F
LEWISTONAUBURN CLOUDY    52  48  87 N10       30.05F
AUGUSTA        CLOUDY    51  49  92 NE7       30.07F FOG
WATERVILLE     CLOUDY    52  45  76 N12       30.03S
BANGOR         DRIZZLE   50  47  89 NE8       30.08F
GREENVILLE       N/A     44  43  96 E7        30.06S
MILLINOCKET    CLOUDY    45  43  93 NE5       30.13F FOG
HOULTON        CLOUDY    43  40  89 E6        30.12F
PRESQUE ISLE   CLOUDY    43  37  81 NE6       30.14F
FRENCHVILLE    CLOUDY    35  35 100 E8        30.13F
CARIBOU        CLOUDY    40  38  93 NE6       30.14F FOG
$$

NHZ002-005-008-009-011-012-014-300800-
NEW HAMPSHIRE

CITY           SKY/WX    TMP DP  RH WIND       PRES   REMARKS
PORTSMOUTH     DRIZZLE   55  53  94 NE7       30.02S FOG
ROCHESTER      CLOUDY    55  53  93 NE5       30.03S FOG
NASHUA         CLOUDY    55  55 100 N3        30.03S
MANCHESTER     CLOUDY    55  52  89 N3        30.01F FOG
CONCORD        CLOUDY    55  54  96 CALM      30.03F
LACONIA        CLOUDY    55  52  88 NE12      30.02F
PLYMOUTH       CLOUDY    56  56 100 CALM      30.02F
BERLIN         CLOUDY    55  51  86 CALM      30.03F
WHITEFIELD     CLOUDY    54  50  86 E7        30.01F
JAFFREY        CLOUDY    54  52  93 CALM      30.03S
LEBANON        CLOUDY    59  52  77 S3        30.01S
MT WASHINGTON  FOG       43  43 100 SW8         N/A  VSB 1/8
$$

VTZ005-007-008-300800-
VERMONT

CITY           SKY/WX    TMP DP  RH WIND       PRES   REMARKS
ST JOHNSBURY     N/A     58  54  86 MISG      29.98F
MONTPELIER     CLOUDY    57  53  86 S7        30.04S
BURLINGTON     PTCLDY    50  46  86 NW3       29.97S
$$

MAZ007-012-024-CTZ003-RIZ002-NYZ038-NYZ072-300800-
SOUTHERN NEW ENGLAND AND NY

CITY           SKY/WX    TMP DP  RH WIND       PRES   REMARKS
BOSTON         CLOUDY    57  55  93 N8        30.02R
WORCESTER      LGT RAIN  53  53 100 NE9       30.01S
NANTUCKET      CLOUDY    64  63  96 N5        29.96S FOG
PROVIDENCE     CLOUDY    59  56  89 N13       29.99F
HARTFORD       CLOUDY    61  56  83 N9        29.97S
ALBANY         FOG       56  55  97 CALM      29.94S VSB 1
NEW YORK CITY  CLOUDY    71  57  61 S5        29.92S
$$

ANZ081-ANZ082-ANZ150-NHZ014-MEZ023>029-300800-
COASTAL MARINE OBSERVATIONS

STATION/POSITION TIME  TEMP    WIND        PRES    WAVE
                       AIR SEA DIR/SP/G            HT/PER
                 (UTC) (F)     (DEG/KT/KT) (MB)    (FT/S)
MOUNT DESERT ROC 0700   54                 1016.4R
MATINICUS ROCK   0600           50/ 25/ 28 1016.5S
PORTLAND WX BUOY 0650   55 59   30/ 14/ 17 1016.6F   5/ 6
WELLS            0600   55 57   40/ 11/ 14 1016.2F
ISLE OF SHOALS   0600   55      40/ 22/ 25 1015.6R
JEFFREYS LEDGE   0621      59                N/A     8/ 8
CASHES LEDGE BUO 0650   58 62              1014.1F   7/ 8
$$

.............KEY..............
   WCI - WIND CHILL
   TC  - TEMPERATURE IN CELSIUS
   VSB - VISIBILITY IN MILES
   HX  - HEAT INDEX
   FAIR- INDICATES FEW OR NO CLOUDS BELOW 12,000 FT, WITH NO
         SIGNIFICANT WEATHER AND/OR OBSTRUCTIONS TO VISIBILITY.





USA.gov is the U.S. government's official web portal to all federal, state and local government web resources and services.